Hourly Weather San Miguel de Tucumán

Today, 24 September, Thursday

Time Temperature Precipitation Wind Pressure Humidity
00:00 +23°C° 0 mm 1 mps 719 mmHg 41%
01:00 +22°C° 0 mm 1 mps 719 mmHg 43%
02:00 +21°C° 0 mm 1 mps 718 mmHg 45%
03:00 +21°C° 0 mm 1 mps 718 mmHg 46%
04:00 +20°C° 0 mm 1 mps 718 mmHg 47%
05:00 +20°C° 0 mm 1 mps 718 mmHg 47%
06:00 +22°C° 0 mm 1 mps 718 mmHg 43%
07:00 +24°C° 0 mm 1 mps 719 mmHg 38%
08:00 +26°C° 0 mm 1 mps 719 mmHg 34%
09:00 +29°C° 0 mm 1 mps 719 mmHg 31%
10:00 +31°C° 0 mm 1 mps 718 mmHg 28%
11:00 +34°C° 0 mm 1 mps 718 mmHg 25%
12:00 +36°C° 0 mm 2 mps 717 mmHg 23%
13:00 +37°C° 0 mm 2 mps 716 mmHg 22%
14:00 +39°C° 0 mm 3 mps 715 mmHg 21%
15:00 +39°C° 0 mm 3 mps 715 mmHg 22%
16:00 +38°C° 0 mm 3 mps 715 mmHg 22%
17:00 +38°C° 0 mm 3 mps 714 mmHg 23%
18:00 +35°C° 0 mm 2 mps 714 mmHg 29%
19:00 +32°C° 0 mm 2 mps 715 mmHg 34%
20:00 +29°C° 0 mm 2 mps 715 mmHg 39%
21:00 +28°C° 0 mm 1 mps 715 mmHg 41%
22:00 +27°C° 0 mm 1 mps 715 mmHg 42%
23:00 +27°C° 0 mm 1 mps 715 mmHg 43%

Tomorrow, 25 September, Friday

Time Temperature Precipitation Wind Pressure Humidity
00:00 +26°C° 0 mm 1 mps 715 mmHg 44%
01:00 +25°C° 0 mm 1 mps 714 mmHg 45%
02:00 +24°C° 0 mm 1 mps 714 mmHg 46%
03:00 +24°C° 0 mm 1 mps 714 mmHg 49%
04:00 +23°C° 0 mm 1 mps 714 mmHg 52%
05:00 +22°C° 0 mm 1 mps 713 mmHg 55%
06:00 +24°C° 0 mm 1 mps 714 mmHg 52%
07:00 +26°C° 0 mm 2 mps 714 mmHg 49%
08:00 +28°C° 0 mm 2 mps 715 mmHg 46%
09:00 +30°C° 0 mm 2 mps 715 mmHg 41%
10:00 +34°C° 0 mm 2 mps 714 mmHg 36%
11:00 +36°C° 0 mm 2 mps 714 mmHg 30%
12:00 +37°C° 0 mm 2 mps 713 mmHg 28%
13:00 +39°C° 0 mm 2 mps 713 mmHg 26%
14:00 +40°C° 0 mm 2 mps 712 mmHg 23%
15:00 +40°C° 0 mm 2 mps 711 mmHg 24%
16:00 +39°C° 0 mm 1 mps 711 mmHg 24%
17:00 +39°C° 0 mm 1 mps 711 mmHg 24%
18:00 +35°C° 0 mm 1 mps 711 mmHg 28%
19:00 +33°C° 0 mm 1 mps 711 mmHg 32%
20:00 +30°C° 0 mm 2 mps 712 mmHg 37%
21:00 +30°C° 0 mm 2 mps 712 mmHg 38%
22:00 +29°C° 0 mm 1 mps 712 mmHg 39%
23:00 +28°C° 0 mm 1 mps 712 mmHg 40%

Day after tomorrow, 26 September, Saturday

Time Temperature Precipitation Wind Pressure Humidity
00:00 +28°C° 0 mm 1 mps 712 mmHg 41%
01:00 +27°C° 0 mm 1 mps 711 mmHg 42%
02:00 +27°C° 0 mm 1 mps 711 mmHg 43%
03:00 +26°C° 0 mm 2 mps 711 mmHg 46%
04:00 +25°C° 0 mm 2 mps 711 mmHg 50%
05:00 +24°C° 0 mm 2 mps 711 mmHg 53%
06:00 +24°C° 0 mm 2 mps 712 mmHg 56%
07:00 +25°C° 0 mm 3 mps 713 mmHg 58%
08:00 +26°C° 0 mm 3 mps 714 mmHg 60%
09:00 +28°C° 0 mm 3 mps 714 mmHg 53%
10:00 +30°C° 0 mm 4 mps 714 mmHg 47%
11:00 +33°C° 0 mm 4 mps 714 mmHg 40%
12:00 +34°C° 0 mm 4 mps 714 mmHg 37%
13:00 +35°C° 0 mm 4 mps 714 mmHg 35%
14:00 +36°C° 0 mm 4 mps 713 mmHg 32%
15:00 +35°C° 0 mm 4 mps 713 mmHg 32%
16:00 +35°C° 0 mm 4 mps 713 mmHg 32%
17:00 +34°C° 0 mm 4 mps 713 mmHg 33%
18:00 +32°C° 0 mm 4 mps 714 mmHg 34%
19:00 +29°C° 0 mm 4 mps 715 mmHg 35%
20:00 +27°C° 0 mm 3 mps 716 mmHg 36%
21:00 +26°C° 0 mm 3 mps 716 mmHg 38%
22:00 +25°C° 0 mm 3 mps 717 mmHg 40%
23:00 +24°C° 0 mm 3 mps 718 mmHg 42%

27 September, Sunday

Time Temperature Precipitation Wind Pressure Humidity
00:00 +21°C° 0 mm 2 mps 718 mmHg 46%
01:00 +20°C° 0 mm 2 mps 718 mmHg 50%
02:00 +20°C° 0 mm 1 mps 718 mmHg 54%
03:00 +19°C° 0 mm 1 mps 719 mmHg 61%
04:00 +18°C° 0 mm 1 mps 719 mmHg 68%
05:00 +18°C° 0 mm 1 mps 719 mmHg 75%
06:00 +19°C° 0 mm 1 mps 720 mmHg 67%
07:00 +21°C° 0 mm 1 mps 720 mmHg 59%
08:00 +22°C° 0 mm 1 mps 721 mmHg 51%
09:00 +24°C° 0 mm 2 mps 721 mmHg 42%
10:00 +26°C° 0 mm 2 mps 721 mmHg 32%
11:00 +27°C° 0 mm 3 mps 721 mmHg 22%
12:00 +28°C° 0 mm 3 mps 720 mmHg 20%
13:00 +29°C° 0 mm 3 mps 719 mmHg 18%
14:00 +30°C° 0 mm 3 mps 718 mmHg 17%
15:00 +30°C° 0 mm 3 mps 718 mmHg 17%
16:00 +29°C° 0 mm 3 mps 718 mmHg 17%
17:00 +29°C° 0 mm 3 mps 717 mmHg 17%
18:00 +26°C° 0 mm 2 mps 718 mmHg 20%
19:00 +23°C° 0 mm 2 mps 719 mmHg 23%
20:00 +20°C° 0 mm 1 mps 719 mmHg 27%
21:00 +20°C° 0 mm 1 mps 719 mmHg 27%
22:00 +18°C° 0 mm 2 mps 720 mmHg 28%
23:00 +18°C° 0 mm 2 mps 720 mmHg 29%

28 September, Monday

Time Temperature Precipitation Wind Pressure Humidity
00:00 +17°C° 0 mm 2 mps 720 mmHg 30%
01:00 +17°C° 0 mm 2 mps 719 mmHg 32%
02:00 +16°C° 0 mm 2 mps 719 mmHg 33%
03:00 +16°C° 0 mm 2 mps 718 mmHg 35%
04:00 +16°C° 0 mm 2 mps 718 mmHg 36%
05:00 +16°C° 0 mm 2 mps 718 mmHg 37%
06:00 +18°C° 0 mm 2 mps 718 mmHg 34%
07:00 +19°C° 0 mm 2 mps 718 mmHg 31%
08:00 +21°C° 0 mm 2 mps 718 mmHg 28%
09:00 +25°C° 0 mm 3 mps 718 mmHg 25%
10:00 +28°C° 0 mm 4 mps 718 mmHg 23%
11:00 +32°C° 0 mm 5 mps 717 mmHg 20%
12:00 +33°C° 0 mm 5 mps 716 mmHg 19%
13:00 +34°C° 0 mm 5 mps 715 mmHg 19%
14:00 +35°C° 0 mm 5 mps 713 mmHg 18%
15:00 +34°C° 0 mm 5 mps 713 mmHg 19%
16:00 +34°C° 0 mm 5 mps 712 mmHg 20%
17:00 +33°C° 0 mm 5 mps 712 mmHg 20%
18:00 +30°C° 0 mm 5 mps 712 mmHg 24%
19:00 +28°C° 0 mm 4 mps 712 mmHg 28%
20:00 +25°C° 0 mm 4 mps 713 mmHg 32%
21:00 +24°C° 0 mm 3 mps 713 mmHg 35%
22:00 +23°C° 0 mm 2 mps 713 mmHg 38%
23:00 +20°C° 0 mm 2 mps 713 mmHg 42%

29 September, Tuesday

Time Temperature Precipitation Wind Pressure Humidity
00:00 +20°C° 0 mm 2 mps 712 mmHg 43%
01:00 +20°C° 0 mm 1 mps 712 mmHg 43%
02:00 +20°C° 0 mm 1 mps 712 mmHg 44%
03:00 +19°C° 0 mm 1 mps 712 mmHg 45%
04:00 +19°C° 0 mm 1 mps 712 mmHg 45%
05:00 +18°C° 0 mm 1 mps 712 mmHg 45%
06:00 +20°C° 0 mm 1 mps 712 mmHg 41%
07:00 +22°C° 0 mm 1 mps 712 mmHg 37%
08:00 +24°C° 0 mm 1 mps 713 mmHg 32%
09:00 +27°C° 0 mm 1 mps 712 mmHg 28%
10:00 +30°C° 0 mm 1 mps 712 mmHg 24%
11:00 +34°C° 0 mm 2 mps 712 mmHg 20%
12:00 +36°C° 0 mm 2 mps 711 mmHg 18%
13:00 +37°C° 0 mm 2 mps 711 mmHg 16%
14:00 +39°C° 0 mm 2 mps 710 mmHg 14%
15:00 +38°C° 0 mm 2 mps 710 mmHg 15%
16:00 +38°C° 0 mm 2 mps 710 mmHg 15%
17:00 +36°C° 0 mm 1 mps 709 mmHg 15%
18:00 +33°C° 0 mm 1 mps 710 mmHg 18%
19:00 +30°C° 0 mm 1 mps 711 mmHg 22%
20:00 +27°C° 0 mm 1 mps 711 mmHg 25%
21:00 +27°C° 0 mm 1 mps 711 mmHg 26%
22:00 +26°C° 0 mm 1 mps 712 mmHg 27%
23:00 +26°C° 0 mm 1 mps 712 mmHg 28%
Show more